sat.trackr.live / text

‹ back to catalog

ANIK F1R

NORAD 28868 · 2005-036A

PAYLOAD ACTIVE UNKNOWN

§ Identity

Operator
Country
CA
Launch date
2005-09-08
Launch site
TYMSC
Launch vehicle
Mass (kg)
RCS (m²)
12.59

Purposes: comms

External: N2YO · Heavens-Above · Gunter

§ Orbital elements

Epoch: 2026-05-24T22:05:59.775072Z

Period
1,436.11 min
Inclination
4.2557°
Eccentricity
0.0004143
Mean motion
1.00271112 rev/d
Perigee alt
35,769.3 km
Apogee alt
35,804.3 km
Semi-major
42,164.9 km
B*
0.0000e+0
RAAN
76.8625°
Arg perigee
353.7110°
Mean anomaly
36.1321°
Rev number
4,622

§ Raw data

ANIK F1R1 28868U 05036A   26144.92083073 -.00000077  00000+0  00000+0 0  99982 28868   4.2557  76.8625 0004143 353.7110  36.1321  1.00271112 46228

JSON: /api/v1/satellites/28868 · /tle

For live sub-satellite position, see the globe view (requires WebGL).

§ Visibility from observer

Set your observer location to see the next 7 days of passes ≥ 10°. The values pass through the URL so the page stays shareable.

No JS? Fill the form by hand. The geolocation button needs JavaScript.